Simultaneous Nadir Overpasses (SNOs) Predictions

Prediction of SNOs between GOES-17 and METOP-B Satellite Orbit:

Table of predicted SNOs for the next 14.0 days since TLE Epoch: 1/27/2024
Index Date Time (GOES-17) GOES-17 Lat,Lon METOP-B Lat,Lon Distance(km) Time Diff (sec)
1 01/28/2024 04:29:30 -0.02,-104.66 -0.23,-105.51 97.80 80
2 01/29/2024 04:06:12 -0.03,-104.66 0.89,-100.53 470.08 80
3 01/30/2024 16:25:06 0.03,-104.67 0.13,-105.11 50.30 80
4 02/02/2024 04:26:12 -0.03,-104.67 -0.04,-104.75 9.13 80
5 02/04/2024 16:24:28 0.03,-104.67 -0.02,-104.34 37.51 80
6 02/06/2024 04:43:31 -0.02,-104.67 -0.98,-108.96 489.49 80
7 02/07/2024 04:20:14 -0.03,-104.66 0.15,-103.98 78.00 80
8 02/08/2024 16:39:07 0.03,-104.66 0.91,-108.55 444.21 80
9 02/09/2024 16:21:10 0.03,-104.66 -0.23,-103.58 123.71 80
